This is the latest recevied weather packets stored in our database for station/object KF7U. If no packets are shown the sender has not sent any weather packets the latest 1 day(s).
| Time | Temp. | Humidity | Pressure | Rain* | Wind** | Luminosity | Snow |
|---|---|---|---|---|---|---|---|
| 1778028455 | 22.78° C | 28% | 1008.5 hPa | 0 mm | - | 130 W/m² | - |
| 1778028154 | 23.33° C | 28% | 1008.1 hPa | 0 mm | - | 134 W/m² | - |
| 1778027855 | 22.78° C | 28% | 1008.1 hPa | 0 mm | - | 147 W/m² | - |
| 1778027555 | 23.33° C | 29% | 1008.1 hPa | 0 mm | - | 147 W/m² | - |
| 1778027254 | 23.33° C | 28% | 1008.1 hPa | 0 mm | - | 156 W/m² | - |
| 1778026954 | 23.89° C | 27% | 1008.1 hPa | 0 mm | - | 189 W/m² | - |
| 1778026654 | 23.89° C | 27% | 1008.1 hPa | 0 mm | - | 238 W/m² | - |
| 1778024255 | 25° C | 27% | 1007.8 hPa | 0 mm | - | 673 W/m² | - |
| 1778019455 | 23.33° C | 32% | 1008.5 hPa | 0 mm | - | 498 W/m² | - |
| 1778018255 | 23.89° C | 34% | 1008.5 hPa | 0 mm | - | 358 W/m² | - |
| 1778017955 | 23.89° C | 32% | 1008.8 hPa | 0 mm | - | 300 W/m² | - |
| 1778017655 | 25° C | 31% | 1008.5 hPa | 0 mm | - | 334 W/m² | - |
| 1778017355 | 24.44° C | 33% | 1008.5 hPa | 0 mm | - | 987 W/m² | - |
| 1778014654 | 22.78° C | 43% | 1009.5 hPa | 0 mm | - | 237 W/m² | - |
| 1778014055 | 23.89° C | 38% | 1009.1 hPa | 0 mm | - | 255 W/m² | - |
| 1778013455 | 23.89° C | 39% | 1009.5 hPa | 0 mm | - | 1173 W/m² | - |
| 1778013155 | 24.44° C | 38% | 1009.5 hPa | 0 mm | - | 339 W/m² | - |
| 1778012555 | 25° C | 37% | 1009.5 hPa | 0 mm | - | 1128 W/m² | - |
| 1778012255 | 25° C | 37% | 1009.5 hPa | 0 mm | - | 1196 W/m² | - |
| 1778011655 | 25° C | 39% | 1009.8 hPa | 0 mm | - | 1159 W/m² | - |
* Rain latest hour (hover to see other rain measurements)
** Current wind speed in m/s (hover to see current wind gust speed)